Location: La Trinit�
(48.1620°N, 3.4512°W)
Time: 04:02:34
(UTC+00:00)

NOSS 3-4 (C) - Pass Details

Date: 08 May 2021
Orbit: 873 x 1339 km, 63.4° (Epoch: 06 May)

Event Time Altitude Azimuth Distance (km) Brightness Sun altitude
Rises 21:32:21 0° 318° (NW) 3,745 8.4 -15.6°
Reaches altitude 10° 21:34:56 10° 323° (NW) 2,854 7.3 -15.9°
Maximum altitude 21:41:35 53° 40° (NE) 1,363 4.3 -16.6°
Enters shadow 21:47:09 18° 112° (ESE) 2,567 5.2 -17.1°
